Location: La Comballaz
(46.3780°N, 7.0817°E)
Time: 04:08:45
(UTC+00:00)

Envisat - Pass Details

Date: 14 December 2021
Orbit: 764 x 766 km, 98.2° (Epoch: 16 January)

Event Time Altitude Azimuth Distance (km) Brightness Sun altitude
Rises 05:58:29 0° 1° (N) 3,244 6.0 -11.3°
Reaches altitude 10° 06:01:18 10° 346° (NNW) 2,312 5.1 -10.9°
Maximum altitude 06:04:59 21° 299° (WNW) 1,689 4.2 -10.3°
Drops below altitude 10° 06:08:40 10° 252° (WSW) 2,301 5.0 -9.7°
Sets 06:11:28 0° 237° (WSW) 3,222 5.9 -9.3°
